Terug naar catalogus

ONEWEB-0565

ActiefCommunicatiePO
NORAD 55146·PAYLOAD·🇬🇧 United Kingdom

Gelanceerd Jan 10, 2023 vanaf Cape Canaveral Space Force Station

Loading…

Volgende Passages (komende 24 uur)

TLE

VersSource: CelesTrak SupGP

Epoch: Sep 14, 2026, 15:00 UTC

1 55146C 23004G   26257.62514306 -.00001343  00000+0 -34107-2 0  2575
2 55146  87.9155 317.7054 0001556  99.8050  10.0290 13.18689676    11

Volg ONEWEB-0565 in realtime met AllMySat

Download on the App Store